| time (UTC) | temp C | wind direction | speed KPH | gust KPH | rain 1hr cm | rain 24hr cm | rain mn cm | humidity % | barometer mb |
| 20260502160104 | 12 | 283 | 6.4 | 14.5 | 0.00 | 0.00 | 0.00 | 36 | 1018.9 |
| 20260502151553 | 11 | 229 | 4.8 | 9.7 | 0.00 | 0.00 | 0.00 | 41 | 1019.1 |
| 20260502123008 | 2 | 219 | 0.0 | 1.6 | 0.00 | 0.00 | 0.00 | 66 | 1019.9 |
| 20260502121507 | 2 | 222 | 0.0 | 1.6 | 0.00 | 0.00 | 0.00 | 66 | 1019.9 |
| 20260502114505 | 1 | 195 | 0.0 | 3.2 | 0.00 | 0.00 | 0.00 | 67 | 1019.9 |
| 20260502113004 | 1 | 174 | 0.0 | 0.0 | 0.00 | 0.00 | 0.00 | 67 | 1019.8 |
| 20260502111503 | 1 | 207 | 0.0 | 1.6 | 0.00 | 0.00 | 0.00 | 67 | 1019.8 |
| 20260502110006 | 1 | 202 | 0.0 | 1.6 | 0.00 | 0.00 | 0.00 | 66 | 1019.8 |
| 20260502104502 | 1 | 217 | 0.0 | 3.2 | 0.00 | 0.00 | 0.00 | 66 | 1019.8 |
| 20260502103002 | 1 | 210 | 0.0 | 1.6 | 0.00 | 0.00 | 0.00 | 66 | 1019.8 |
| 20260502101702 | 2 | 214 | 0.0 | 1.6 | 0.00 | 0.00 | 0.00 | 66 | 1019.7 |
| 20260502070054 | 1 | 355 | 0.0 | 0.0 | 0.00 | 0.00 | 0.00 | 70 | 1019.8 |
| 20260502064548 | 1 | 355 | 0.0 | 0.0 | 0.00 | 0.00 | 0.00 | 70 | 1019.8 |
| 20260502063045 | 1 | 355 | 0.0 | 0.0 | 0.00 | 0.00 | 0.00 | 71 | 1019.8 |
| 20260502061544 | 2 | 355 | 0.0 | 0.0 | 0.00 | 0.00 | 0.00 | 69 | 1019.8 |
| 20260502060044 | 2 | 355 | 0.0 | 0.0 | 0.00 | 0.00 | 0.00 | 69 | 1019.8 |
| 20260502054541 | 2 | 355 | 0.0 | 0.0 | 0.00 | 0.00 | 0.00 | 69 | 1019.9 |
| 20260502053038 | 2 | 355 | 0.0 | 0.0 | 0.00 | 0.00 | 0.00 | 67 | 1019.9 |
| 20260502051535 | 2 | 355 | 0.0 | 0.0 | 0.00 | 0.00 | 0.00 | 65 | 1019.8 |
| 20260502050036 | 3 | 355 | 0.0 | 0.0 | 0.00 | 0.00 | 0.00 | 64 | 1019.8 |
| 20260502044532 | 3 | 355 | 0.0 | 0.0 | 0.00 | 0.00 | 0.00 | 64 | 1019.6 |
| 20260502043031 | 3 | 355 | 0.0 | 0.0 | 0.00 | 0.00 | 0.00 | 64 | 1019.6 |
| 20260502041534 | 3 | 355 | 0.0 | 0.0 | 0.00 | 0.00 | 0.00 | 63 | 1019.5 |
| 20260502040030 | 3 | 355 | 0.0 | 0.0 | 0.00 | 0.00 | 0.00 | 61 | 1019.5 |
| 20260502034537 | 3 | 355 | 0.0 | 0.0 | 0.00 | 0.00 | 0.00 | 61 | 1019.4 |
| 20260502033031 | 4 | 355 | 0.0 | 0.0 | 0.00 | 0.00 | 0.00 | 60 | 1019.5 |
| 20260502031528 | 4 | 355 | 0.0 | 0.0 | 0.00 | 0.00 | 0.00 | 59 | 1019.5 |
| 20260502030029 | 5 | 355 | 0.0 | 0.0 | 0.00 | 0.00 | 0.00 | 56 | 1019.4 |
| 20260502024527 | 5 | 355 | 0.0 | 0.0 | 0.00 | 0.00 | 0.00 | 56 | 1019.3 |
| 20260502023025 | 5 | 355 | 0.0 | 0.0 | 0.00 | 0.00 | 0.00 | 54 | 1019.1 |
| 20260502021524 | 6 | 355 | 0.0 | 0.0 | 0.00 | 0.00 | 0.00 | 53 | 1019.0 |
| 20260502020022 | 6 | 355 | 0.0 | 3.2 | 0.00 | 0.00 | 0.00 | 51 | 1018.8 |
| 20260502014544 | 7 | 323 | 0.0 | 1.6 | 0.00 | 0.00 | 0.00 | 49 | 1018.7 |
| 20260502013020 | 8 | 322 | 0.0 | 4.8 | 0.00 | 0.00 | 0.00 | 45 | 1018.5 |
| 20260502011520 | 8 | 335 | 0.0 | 6.4 | 0.00 | 0.00 | 0.00 | 42 | 1018.4 |
| 20260502010019 | 9 | 294 | 1.6 | 8.0 | 0.00 | 0.00 | 0.00 | 40 | 1018.3 |
| 20260502004519 | 10 | 327 | 3.2 | 11.3 | 0.00 | 0.00 | 0.00 | 40 | 1018.2 |
| 20260502003018 | 11 | 93 | 4.8 | 9.7 | 0.00 | 0.00 | 0.00 | 37 | 1018.0 |
| 20260502001520 | 11 | 282 | 3.2 | 11.3 | 0.00 | 0.00 | 0.00 | 36 | 1018.1 |
| 20260502000037 | 11 | 271 | 3.2 | 16.1 | 0.00 | 0.00 | 0.00 | 36 | 1017.9 |
| 20260501234516 | 11 | 271 | 3.2 | 9.7 | 0.00 | 0.00 | 0.00 | 37 | 1017.8 |
| 20260501233016 | 11 | 82 | 1.6 | 9.7 | 0.00 | 0.00 | 0.00 | 37 | 1017.9 |
| 20260501231519 | 11 | 86 | 4.8 | 11.3 | 0.00 | 0.00 | 0.00 | 38 | 1017.9 |
| 20260501230016 | 12 | 122 | 6.4 | 16.1 | 0.00 | 0.00 | 0.00 | 35 | 1017.8 |
| 20260501224511 | 12 | 354 | 3.2 | 9.7 | 0.00 | 0.00 | 0.00 | 36 | 1017.7 |
| 20260501223008 | 11 | 322 | 3.2 | 12.9 | 0.00 | 0.00 | 0.00 | 39 | 1017.8 |
| 20260501221517 | 11 | 343 | 3.2 | 11.3 | 0.00 | 0.00 | 0.00 | 40 | 1017.8 |
| 20260501220012 | 11 | 337 | 8.0 | 14.5 | 0.00 | 0.00 | 0.00 | 37 | 1017.7 |
| 20260501214509 | 10 | 95 | 3.2 | 12.9 | 0.00 | 0.00 | 0.00 | 41 | 1017.8 |
| 20260501213006 | 11 | 324 | 4.8 | 11.3 | 0.00 | 0.00 | 0.00 | 40 | 1017.8 |
| 20260501211608 | 11 | 8 | 4.8 | 11.3 | 0.00 | 0.00 | 0.00 | 39 | 1017.9 |
| 20260501210005 | 10 | 319 | 3.2 | 8.0 | 0.00 | 0.00 | 0.00 | 40 | 1018.0 |
| 20260501204502 | 10 | 194 | 4.8 | 14.5 | 0.00 | 0.00 | 0.00 | 39 | 1018.0 |
| 20260501203001 | 10 | 335 | 3.2 | 11.3 | 0.00 | 0.00 | 0.00 | 40 | 1018.2 |
| 20260501201501 | 11 | 328 | 1.6 | 12.9 | 0.00 | 0.00 | 0.00 | 43 | 1018.2 |
| 20260501200100 | 10 | 317 | 1.6 | 14.5 | 0.00 | 0.00 | 0.00 | 40 | 1018.2 |
| 20260501194559 | 10 | 332 | 3.2 | 12.9 | 0.00 | 0.00 | 0.00 | 41 | 1018.3 |
| 20260501193102 | 10 | 46 | 8.0 | 14.5 | 0.00 | 0.00 | 0.00 | 40 | 1018.4 |
| 20260501191558 | 10 | 314 | 6.4 | 20.9 | 0.00 | 0.00 | 0.00 | 43 | 1018.4 |
| 20260501190056 | 10 | 348 | 3.2 | 9.7 | 0.00 | 0.00 | 0.00 | 48 | 1018.3 |
| 20260501184556 | 9 | 319 | 3.2 | 11.3 | 0.00 | 0.00 | 0.00 | 46 | 1018.4 |
| 20260501183056 | 8 | 29 | 3.2 | 9.7 | 0.00 | 0.00 | 0.00 | 48 | 1018.4 |
| 20260501181552 | 8 | 39 | 1.6 | 12.9 | 0.00 | 0.00 | 0.00 | 50 | 1018.5 |
| 20260501180054 | 8 | 314 | 6.4 | 12.9 | 0.00 | 0.00 | 0.00 | 47 | 1018.5 |
| 20260501174551 | 8 | 4 | 4.8 | 12.9 | 0.00 | 0.00 | 0.00 | 47 | 1018.6 |
| 20260501173050 | 9 | 349 | 3.2 | 12.9 | 0.00 | 0.00 | 0.00 | 46 | 1018.5 |
| 20260501171553 | 8 | 344 | 3.2 | 12.9 | 0.00 | 0.00 | 0.00 | 51 | 1018.5 |
| 20260501170053 | 7 | 13 | 3.2 | 24.1 | 0.00 | 0.00 | 0.00 | 49 | 1018.5 |
| 20260501164546 | 8 | 1 | 6.4 | 17.7 | 0.00 | 0.00 | 0.00 | 49 | 1018.3 |
| 20260501163045 | 8 | 248 | 4.8 | 16.1 | 0.00 | 0.00 | 0.00 | 48 | 1018.3 |
| 20260501161541 | 8 | 351 | 3.2 | 11.3 | 0.00 | 0.00 | 0.00 | 51 | 1018.2 |